Location: Unspecified
(45.0173°N, 35.2345°E)
Time: 15:33:52
(UTC+02:00)

ISS - Pass Details

Date: 21 January 2026
Orbit: 414 x 429 km, 51.6° (Epoch: 8 February)

Event Time Altitude Azimuth Distance (km) Brightness Sun altitude
Rises 18:03:53 0° 291° (WNW) 2,364 1.1 -16.2°
Reaches altitude 10° 18:06:12 10° 304° (NW) 1,503 -0.3 -16.6°
Maximum altitude 18:09:06 26° 3° (N) 880 -2.3 -17.1°
Enters shadow 18:09:30 25° 16° (NNE) 896 -2.4 -17.1°
